Date String (YYYY-MM-DD hh:mm:ss) UTC,Instrument flags,absolute air pressure of the measurement (hPa),sample flow rate (lpm),inlet stack bypass flow (lpm),air temperature of the measurement (°C),ambient temperature measured by the external sensor (°C),aerosol sample conditioner tube jacket temperature (°C),OPC LED temperature (°C),internal box temperature (°C),relative humidity of the measurement (%),span deviation,mass concentration of particles derived from Lorenz-Mie calculation of OPC scattering (μg/m³),mass concentration of particles derived from Lorenz-Mie calculation of OPC scattering (μg/m³),mass concentration of particles derived from Lorenz-Mie calculation of OPC scattering (μg/m³)
DateTimeUTC,F1_M11,P_M11,Q1_M11,Q2_M11,T1_M11,T2_M11,T3_M11,T4_M11,T5_M11,U1_M11,ZSPAN_M11,X0_M11,X2_M11,X1_M11
2024-01-01 09:00:00,SystemResetWarning,0831.2,5.00,000.00,020.6,019.5,000.0,029.0,022.0,15.1,0000.0,0013.39,0007.09,0006.36
2024-01-01 09:01:00,SystemResetWarning,0831.2,5.00,000.00,020.6,019.5,000.0,029.0,021.9,15.1,0000.0,0013.22,0007.05,0006.35
2024-01-01 09:02:00,SystemResetWarning,0831.2,5.01,000.00,020.6,019.5,000.0,029.0,022.0,15.0,0000.0,0013.16,0007.03,0006.34
2024-01-01 09:03:00,SystemResetWarning,0831.2,5.00,000.00,020.6,019.5,000.0,029.0,021.9,15.0,0000.0,0013.07,0007.01,0006.33
2024-01-01 09:04:00,SystemResetWarning,0831.2,5.00,000.00,020.6,019.4,000.0,029.0,021.9,15.0,0000.0,0012.72,0007.00,0006.33
2024-01-01 09:05:00,SystemResetWarning,0831.3,5.00,000.00,020.6,019.4,000.0,029.0,021.9,15.0,0001.3,0013.18,0007.05,0006.33
2024-01-01 09:06:00,SystemResetWarning,0831.2,5.00,000.00,020.6,019.4,000.0,029.0,021.9,15.1,0003.5,0013.38,0007.05,0006.32
2024-01-01 09:07:00,SystemResetWarning,0831.2,5.00,000.00,020.6,019.4,000.0,029.0,021.9,15.1,0003.4,0013.37,0007.05,0006.34
2024-01-01 09:08:00,SystemResetWarning,0831.3,5.00,000.00,020.6,019.4,000.0,029.0,021.9,15.2,0003.4,0012.94,0007.02,0006.34
2024-01-01 09:09:00,SystemResetWarning,0831.2,5.00,000.00,020.6,019.4,000.0,029.0,021.8,15.2,0003.5,0013.21,0007.01,0006.35
2024-01-01 09:10:00,SystemResetWarning,0831.2,5.00,000.00,020.5,019.4,000.0,028.9,021.8,15.2,0003.5,0013.44,0006.98,0006.35
2024-01-01 09:11:00,SystemResetWarning,0831.2,5.00,000.00,020.5,019.3,000.0,028.9,021.8,15.2,0004.0,0014.46,0006.95,0006.34
2024-01-01 09:12:00,SystemResetWarning,0831.2,5.00,000.00,020.5,019.3,000.0,028.9,021.8,15.2,0004.7,0014.69,0006.92,0006.30
2024-01-01 09:13:00,SystemResetWarning,0831.3,4.99,000.00,020.5,019.3,000.0,028.9,021.8,15.2,0005.0,0015.04,0006.91,0006.27
2024-01-01 09:14:00,SystemResetWarning,0831.2,5.00,000.00,020.5,019.3,000.0,028.9,021.8,15.3,0005.0,0015.55,0006.87,0006.22
2024-01-01 09:15:00,SystemResetWarning,0831.2,5.00,000.00,020.5,019.3,000.0,028.9,021.8,15.3,0004.9,0015.97,0006.79,0006.17
2024-01-01 09:16:00,SystemResetWarning,0831.2,5.00,000.00,020.5,019.3,000.0,028.9,021.8,15.3,0004.9,0015.73,0006.70,0006.13
2024-01-01 09:17:00,SystemResetWarning,0831.2,4.99,000.00,020.5,019.3,000.0,028.9,021.8,15.4,0004.8,0015.40,0006.70,0006.13
2024-01-01 09:18:00,SystemResetWarning,0831.3,5.00,000.00,020.5,019.3,000.0,028.9,021.8,15.4,0004.6,0015.09,0006.71,0006.12
2024-01-01 09:19:00,SystemResetWarning,0831.3,5.00,000.00,020.5,019.3,000.0,028.9,021.8,15.4,0002.9,0014.88,0006.74,0006.11
2024-01-01 09:20:00,SystemResetWarning,0831.3,5.00,000.00,020.5,019.3,000.0,028.9,021.8,15.4,0003.4,0014.71,0006.75,0006.10
2024-01-01 09:21:00,SystemResetWarning,0831.2,5.00,000.00,020.5,019.3,000.0,028.9,021.8,15.4,0004.3,0014.40,0006.74,0006.10
2024-01-01 09:22:00,SystemResetWarning,0831.3,5.00,000.00,020.5,019.3,000.0,028.8,021.8,15.4,0003.3,0013.55,0006.73,0006.10
2024-01-01 09:23:00,SystemResetWarning,0831.3,5.00,000.00,020.4,019.3,000.0,028.8,021.8,15.4,0003.6,0013.36,0006.74,0006.11
2024-01-01 09:24:00,SystemResetWarning,0831.3,5.00,000.00,020.4,019.3,000.0,028.8,021.8,15.4,0003.5,0013.16,0006.77,0006.15
2024-01-01 09:25:00,SystemResetWarning,0831.3,5.00,000.00,020.4,019.3,000.0,028.8,021.8,15.4,0002.9,0012.93,0006.87,0006.21
2024-01-01 09:26:00,SystemResetWarning,0831.3,5.00,000.00,020.4,019.3,000.0,028.8,021.8,15.4,0000.0,0012.54,0006.95,0006.27
2024-01-01 09:27:00,SystemResetWarning,0831.3,5.00,000.00,020.4,019.3,000.0,028.8,021.7,15.5,0000.0,0012.23,0007.04,0006.33
2024-01-01 09:28:00,SystemResetWarning,0831.2,5.00,000.00,020.4,019.3,000.0,028.8,021.7,15.5,0000.7,0011.86,0007.07,0006.37
2024-01-01 09:29:00,SystemResetWarning,0831.3,5.00,000.00,020.4,019.4,000.0,028.8,021.7,15.5,0002.7,0011.86,0007.08,0006.39
2024-01-01 09:30:00,SystemResetWarning,0831.2,5.00,000.00,020.4,019.4,000.0,028.8,021.7,15.5,0003.2,0012.74,0007.09,0006.42
2024-01-01 09:31:00,SystemResetWarning,0831.2,5.00,000.00,020.4,019.4,000.0,028.8,021.7,15.6,0003.1,0012.55,0007.10,0006.45
2024-01-01 09:32:00,SystemResetWarning,0831.3,4.99,000.00,020.4,019.4,000.0,028.8,021.7,15.6,0000.0,0012.39,0007.11,0006.47
2024-01-01 09:33:00,SystemResetWarning,0831.3,5.00,000.00,020.4,019.4,000.0,028.8,021.7,15.6,0001.6,0012.74,0007.13,0006.50
2024-01-01 09:34:00,SystemResetWarning,0831.3,5.00,000.00,020.4,019.4,000.0,028.8,021.7,15.6,0000.6,0012.97,0007.23,0006.55
2024-01-01 09:35:00,SystemResetWarning,0831.2,5.00,000.00,020.4,019.4,000.0,028.8,021.7,15.6,0000.0,0012.96,0007.23,0006.57
2024-01-01 09:36:00,SystemResetWarning,0831.3,5.00,000.00,020.4,019.4,000.0,028.7,021.7,15.6,0000.9,0012.94,0007.20,0006.56
2024-01-01 09:37:00,SystemResetWarning,0831.2,5.00,000.00,020.4,019.4,000.0,028.7,021.7,15.6,0002.3,0013.23,0007.18,0006.56
2024-01-01 09:38:00,SystemResetWarning,0831.2,5.00,000.00,020.4,019.4,000.0,028.7,021.7,15.6,0002.8,0013.34,0007.15,0006.55
2024-01-01 09:39:00,SystemResetWarning,0831.2,5.00,000.00,020.4,019.4,000.0,028.7,021.7,15.5,0000.2,0013.37,0007.14,0006.53
2024-01-01 09:40:00,SystemResetWarning,0831.2,5.01,000.00,020.4,019.4,000.0,028.7,021.7,15.5,0000.0,0014.00,0007.15,0006.53
2024-01-01 09:41:00,SystemResetWarning,0831.2,5.01,000.00,020.4,019.4,000.0,028.7,021.7,15.5,0000.7,0013.38,0007.15,0006.54
2024-01-01 09:42:00,SystemResetWarning,0831.2,5.00,000.00,020.4,019.4,000.0,028.7,021.7,15.5,0002.3,0013.44,0007.17,0006.53
2024-01-01 09:43:00,SystemResetWarning,0831.2,5.00,000.00,020.3,019.4,000.0,028.7,021.7,15.5,0002.5,0013.88,0007.24,0006.54
2024-01-01 09:44:00,SystemResetWarning,0831.2,4.99,000.00,020.3,019.3,000.0,028.7,021.7,15.4,0001.1,0013.33,0007.24,0006.53
2024-01-01 09:45:00,SystemResetWarning,0831.2,5.00,000.00,020.3,019.3,000.0,028.7,021.7,15.4,0000.0,0013.44,0007.21,0006.54
2024-01-01 09:46:00,SystemResetWarning,0831.2,4.99,000.00,020.3,019.3,000.0,028.7,021.7,15.4,0000.8,0013.76,0007.23,0006.56
2024-01-01 09:47:00,SystemResetWarning,0831.2,5.00,000.00,020.3,019.3,000.0,028.7,021.7,15.4,0001.1,0013.82,0007.21,0006.57
2024-01-01 09:48:00,SystemResetWarning,0831.2,5.00,000.00,020.3,019.3,000.0,028.7,021.7,15.4,0000.0,0013.49,0007.23,0006.59
2024-01-01 09:49:00,SystemResetWarning,0831.2,5.01,000.00,020.3,019.2,000.0,028.7,021.6,15.5,0000.0,0013.08,0007.25,0006.61
2024-01-01 09:50:00,SystemResetWarning,0831.2,5.01,000.00,020.3,019.2,000.0,028.7,021.6,15.5,0000.0,0013.06,0007.26,0006.62
2024-01-01 09:51:00,SystemResetWarning,0831.2,5.00,000.00,020.3,019.2,000.0,028.7,021.6,15.5,0000.0,0012.77,0007.26,0006.63
2024-01-01 09:52:00,SystemResetWarning,0831.2,5.00,000.00,020.3,019.2,000.0,028.7,021.6,15.5,0000.0,0012.41,0007.28,0006.64
2024-01-01 09:53:00,SystemResetWarning,0831.2,5.00,000.00,020.3,019.2,000.0,028.7,021.6,15.5,0000.0,0012.64,0007.30,0006.65
2024-01-01 09:54:00,SystemResetWarning,0831.2,5.00,000.00,020.3,019.2,000.0,028.6,021.6,15.5,0000.0,0012.42,0007.25,0006.65
2024-01-01 09:55:00,SystemResetWarning,0831.2,5.00,000.00,020.2,019.1,000.0,028.6,021.6,15.5,0000.0,0012.34,0007.23,0006.63
2024-01-01 09:56:00,SystemResetWarning,0831.2,4.99,000.00,020.2,019.1,000.0,028.6,021.6,15.6,0000.0,0012.23,0007.19,0006.60
2024-01-01 09:57:00,SystemResetWarning,0831.2,5.00,000.00,020.2,019.1,000.0,028.6,021.5,15.6,0000.0,0012.44,0007.14,0006.57
2024-01-01 09:58:00,SystemResetWarning,0831.2,5.00,000.00,020.2,019.1,000.0,028.6,021.5,15.7,0000.0,0011.96,0007.12,0006.55
2024-01-01 09:59:00,SystemResetWarning,0831.2,5.00,000.00,020.2,019.1,000.0,028.6,021.5,15.7,0000.0,0011.92,0007.11,0006.53
